EW5461 Weather Reports


Display with metric or nautical units.
time (UTC)temp
F
wind
direction
speed
MPH
gust
MPH
rain 1hr
in
rain 24hr
in
rain mn
in
humidity
%
barometer
mb
20260831030030 90 158 0.0 3.0 0.00 0.00 0.00 41 1011.4
20260831024530 90 171 0.0 2.0 0.00 0.00 0.00 41 1011.3
20260831023028 91 171 0.0 2.0 0.00 0.00 0.00 41 1011.1
20260831021536 91 171 0.0 2.0 0.00 0.00 0.00 40 1010.9
20260831020028 92 171 0.0 2.0 0.00 0.00 0.00 39 1010.6
20260831014528 93 171 0.0 3.0 0.00 0.00 0.00 38 1010.4
20260831013028 93 171 0.0 4.0 0.00 0.00 0.00 38 1010.3
20260831011526 94 179 0.0 5.0 0.00 0.00 0.00 37 1010.2
20260831010027 95 159 2.0 6.0 0.00 0.00 0.00 36 1010.1
20260831004525 96 168 2.0 10.0 0.00 0.00 0.00 35 1010.0
20260831003024 97 190 4.0 11.0 0.00 0.00 0.00 34 1010.0
20260831001523 98 125 3.0 9.0 0.00 0.00 0.00 33 1010.0
20260831000035 99 169 4.0 10.0 0.00 0.00 0.00 31 1010.1
20260830234522 100 172 3.0 9.0 0.00 0.00 0.00 31 1010.2
20260830233024 100 131 1.0 11.0 0.00 0.00 0.00 32 1010.1
20260830231522 102 121 2.0 8.0 0.00 0.00 0.00 30 1010.0
20260830230019 101 78 1.0 11.0 0.00 0.00 0.00 30 1010.2
20260830224518 101 162 4.0 9.0 0.00 0.00 0.00 29 1010.3
20260830223016 101 142 2.0 10.0 0.00 0.00 0.00 31 1010.3
20260830221516 101 205 4.0 12.0 0.00 0.00 0.00 30 1010.3
20260830220015 101 134 5.0 16.0 0.00 0.00 0.00 30 1010.4
20260830214511 102 120 2.0 5.0 0.00 0.00 0.00 30 1010.3
20260830213009 101 188 4.0 13.0 0.00 0.00 0.00 31 1010.4
20260830211513 101 213 2.0 15.0 0.00 0.00 0.00 31 1010.6
20260830210004 100 140 4.0 15.0 0.00 0.00 0.00 32 1010.9
20260830204502 100 122 4.0 12.0 0.00 0.00 0.00 33 1010.9
20260830203059 101 197 3.0 12.0 0.00 0.00 0.00 32 1011.2
20260830201558 100 227 7.0 16.0 0.00 0.00 0.00 32 1011.4
20260830200055 100 162 3.0 14.0 0.00 0.00 0.00 33 1011.7
20260830194552 99 131 3.0 12.0 0.00 0.00 0.00 34 1011.8
20260830193050 99 151 5.0 11.0 0.00 0.00 0.00 34 1012.0
20260830191547 99 237 5.0 13.0 0.00 0.00 0.00 35 1012.1
20260830190045 98 176 7.0 12.0 0.00 0.00 0.00 36 1012.3
20260830184543 99 162 3.0 10.0 0.00 0.00 0.00 35 1012.6
20260830183039 98 178 6.0 13.0 0.00 0.00 0.00 36 1012.7
20260830181537 96 166 6.0 10.0 0.00 0.00 0.00 38 1013.0
20260830180035 96 128 6.0 14.0 0.00 0.00 0.00 39 1013.1
20260830174533 96 250 4.0 14.0 0.00 0.00 0.00 41 1013.4
20260830173029 96 126 4.0 12.0 0.00 0.00 0.00 42 1013.7
20260830171528 95 205 8.0 14.0 0.00 0.00 0.00 43 1013.9
20260830170026 95 171 5.0 11.0 0.00 0.00 0.00 44 1014.2
20260830164549 94 190 7.0 12.0 0.00 0.00 0.00 45 1014.2
20260830163026 93 207 4.0 12.0 0.00 0.00 0.00 50 1014.4
20260830161518 92 238 5.0 13.0 0.00 0.00 0.00 50 1014.5
20260830160015 91 188 5.0 13.0 0.00 0.00 0.00 53 1014.5
20260830154515 91 184 7.0 11.0 0.00 0.00 0.00 54 1014.6
20260830153011 90 199 2.0 9.0 0.00 0.00 0.00 56 1014.4
20260830151509 89 171 5.0 11.0 0.00 0.00 0.00 57 1014.5
20260830150008 88 117 3.0 12.0 0.00 0.00 0.00 58 1014.4
20260830144507 87 178 4.0 9.0 0.00 0.00 0.00 59 1014.4
20260830143006 86 206 3.0 10.0 0.00 0.00 0.00 61 1014.5
20260830141506 84 182 4.0 8.0 0.00 0.00 0.00 64 1014.4
20260830140005 84 129 4.0 10.0 0.00 0.00 0.00 66 1014.4
20260830134504 82 192 3.0 11.0 0.00 0.00 0.00 69 1014.5
20260830133004 81 165 3.0 9.0 0.00 0.00 0.00 71 1014.4
20260830131601 80 170 2.0 6.0 0.00 0.00 0.00 72 1014.2
20260830130107 80 212 2.0 6.0 0.00 0.00 0.00 73 1014.0
20260830124558 80 180 2.0 6.0 0.00 0.00 0.00 73 1013.9
20260830123121 79 158 3.0 7.0 0.00 0.00 0.00 73 1013.8
20260830121602 80 220 3.0 7.0 0.00 0.00 0.00 72 1013.6
20260830120055 79 165 4.0 7.0 0.00 0.00 0.00 72 1013.5
20260830114604 80 155 2.0 6.0 0.00 0.00 0.00 71 1013.4
20260830113047 80 171 2.0 7.0 0.00 0.00 0.00 70 1013.0
20260830111545 80 190 2.0 6.0 0.00 0.00 0.00 70 1012.9
20260830110042 81 164 2.0 7.0 0.00 0.00 0.00 69 1012.8
20260830104549 81 192 1.0 5.0 0.00 0.00 0.00 68 1012.8
20260830103039 81 159 1.0 7.0 0.00 0.00 0.00 67 1012.5
20260830101540 82 166 3.0 8.0 0.00 0.00 0.00 66 1012.4
20260830100035 82 196 4.0 9.0 0.00 0.00 0.00 65 1012.3
20260830094538 82 204 4.0 8.0 0.00 0.00 0.00 64 1012.4
20260830093031 83 150 3.0 7.0 0.00 0.00 0.00 63 1012.4
20260830091534 83 168 4.0 9.0 0.00 0.00 0.00 63 1012.3
20260830090028 83 185 4.0 9.0 0.00 0.00 0.00 62 1012.3
20260830084527 84 178 4.0 9.0 0.00 0.00 0.00 61 1012.3
20260830083025 84 186 3.0 10.0 0.00 0.00 0.00 60 1012.4
20260830081539 84 169 5.0 9.0 0.00 0.00 0.00 59 1012.4
20260830080021 85 148 4.0 10.0 0.00 0.00 0.00 58 1012.5
20260830074523 85 149 5.0 12.0 0.00 0.00 0.00 57 1012.5
20260830073022 85 148 4.0 9.0 0.00 0.00 0.00 56 1012.6
20260830071516 86 169 3.0 10.0 0.00 0.00 0.00 55 1012.6
20260830070014 86 152 5.0 10.0 0.00 0.00 0.00 54 1012.7
20260830064512 86 166 3.0 8.0 0.00 0.00 0.00 54 1012.7
20260830063018 87 149 4.0 7.0 0.00 0.00 0.00 53 1012.7
20260830061507 87 176 4.0 8.0 0.00 0.00 0.00 52 1012.8
20260830060004 88 176 3.0 9.0 0.00 0.00 0.00 51 1012.6
20260830054502 88 159 3.0 7.0 0.00 0.00 0.00 50 1012.7
20260830053059 89 185 3.0 6.0 0.00 0.00 0.00 49 1012.6
20260830051554 89 189 3.0 11.0 0.00 0.00 0.00 48 1012.7
20260830050052 89 176 2.0 6.0 0.00 0.00 0.00 47 1012.6
20260830044551 89 165 1.0 6.0 0.00 0.00 0.00 46 1012.7
20260830043050 89 166 0.0 8.0 0.00 0.00 0.00 46 1012.6
20260830041606 89 302 0.0 3.0 0.00 0.00 0.00 46 1012.5
20260830040152 90 173 0.0 2.0 0.00 0.00 0.00 45 1012.5
20260830034549 90 168 0.0 2.0 0.00 0.00 0.00 44 1012.5
20260830033051 91 25 0.0 3.0 0.00 0.00 0.00 43 1012.4
20260830031547 91 171 0.0 5.0 0.00 0.00 0.00 42 1012.3